EW3016 Weather Reports


Display with metric or nautical units.
time (UTC)temp
F
wind
direction
speed
MPH
gust
MPH
rain 1hr
in
rain 24hr
in
rain mn
in
humidity
%
barometer
mb
20260509033017 42 0.0 0.0 0.00 0.09 0.09 68 1011.4
20260509030016 44 0.0 0.0 0.00 0.09 0.09 62 1011.7
20260509023022 45 0.0 0.0 0.00 0.09 0.09 59 1012.2
20260509020017 46 0.0 0.0 0.00 0.09 0.09 58 1012.3
20260509013018 47 0.0 0.0 0.00 0.09 0.09 58 1012.1
20260509010016 47 0.0 0.0 0.00 0.09 0.09 53 1011.4
20260509003016 47 0.0 0.0 0.00 0.09 0.09 54 1011.1
20260509000018 50 0.0 3.0 0.00 0.09 0.09 51 1010.8
20260508233038 51 293 1.0 8.0 0.00 0.09 0.09 47 1010.6
20260508230018 53 248 2.0 10.0 0.00 0.09 0.09 46 1010.7
20260508223016 52 293 4.0 12.0 0.00 0.09 0.09 45 1010.5
20260508220017 53 248 4.0 13.0 0.00 0.09 0.09 46 1010.7
20260508213016 53 248 3.0 13.0 0.00 0.09 0.09 49 1010.7
20260508210057 50 293 5.0 13.0 0.00 0.09 0.09 53 1010.9
20260508203041 50 248 5.0 15.0 0.00 0.09 0.09 57 1011.0
20260508200016 51 248 5.0 16.0 0.00 0.09 0.09 58 1011.0
20260508193016 48 248 4.0 13.0 0.00 0.09 0.09 71 1011.3
20260508190016 48 248 4.0 13.0 0.00 0.09 0.09 76 1011.7
20260508183036 45 248 1.0 11.0 0.00 0.09 0.09 78 1011.7
20260508180021 45 203 1.0 8.0 0.00 0.09 0.09 85 1011.6
20260508173016 42 0.0 4.0 0.01 0.09 0.09 92 1011.6
20260508170016 39 0.0 3.0 0.03 0.09 0.09 93 1011.7
20260508163016 37 0.0 0.0 0.03 0.08 0.08 92 1011.7
20260508160016 37 0.0 0.0 0.02 0.06 0.06 91 1011.4
20260508153018 37 0.0 3.0 0.04 0.05 0.05 91 1011.1
20260508150016 37 248 2.0 9.0 0.04 0.04 0.04 88 1011.4
20260508143016 39 293 3.0 10.0 0.01 0.01 0.01 82 1011.4
20260508140036 43 248 1.0 7.0 0.00 0.00 0.00 72 1011.0
20260508133016 44 248 1.0 6.0 0.00 0.00 0.00 71 1010.8
20260508130016 44 0.0 6.0 0.00 0.00 0.00 75 1010.8
20260508123016 42 0.0 5.0 0.00 0.00 0.00 76 1010.9
20260508120036 41 0.0 0.0 0.00 0.00 0.00 80 1011.3
20260508113015 38 0.0 0.0 0.00 0.00 0.00 85 1011.3
20260508110016 38 0.0 0.0 0.00 0.00 0.00 85 1011.0
20260508103036 38 0.0 0.0 0.00 0.00 0.00 85 1011.3
20260508100017 37 0.0 0.0 0.00 0.00 0.00 84 1010.7
20260508093017 38 0.0 0.0 0.00 0.00 0.00 83 1010.8
20260508090019 38 0.0 0.0 0.00 0.00 0.00 83 1010.7
20260508083018 38 0.0 0.0 0.00 0.00 0.00 83 1010.7
20260508080017 38 0.0 0.0 0.00 0.00 0.00 80 1010.1
20260508073019 38 0.0 0.0 0.00 0.00 0.00 76 1010.3
20260508070019 39 0.0 6.0 0.00 0.00 0.00 75 1010.3
20260508063023 38 0.0 0.0 0.00 0.01 0.00 77 1010.2
20260508060017 38 0.0 0.0 0.00 0.01 0.00 76 1010.0
20260508053017 39 0.0 0.0 0.00 0.01 0.00 77 1010.2
20260508050017 39 0.0 0.0 0.00 0.01 0.00 71 1010.1
20260508043037 39 0.0 0.0 0.00 0.01 0.00 71 1010.2
20260508040018 39 0.0 0.0 0.00 0.01 0.01 71 1009.8